User: anonymous   Login
Location: Kott?ru
(16.6209°N, 80.6208°E)
Time: 08:51:15
(UTC+00:00)
Language:

AAUSAT CUBESAT 2 - Orbit

View from above orbital plane
View from above orbital plane
View from above satellite
View from above satellite

Ground track
Ground track

The orbit data is extracted from the following two-line orbital elements,

1 32788U 08021F   23159.16772393  .00010650  00000-0  77975-3 0  9997
2 32788  97.5588 138.7878 0008818  35.9017 324.2800 15.03714390821759
Epoch (UTC): 08 June 2023 04:01:31
Eccentricity: 0.0008818
inclination: 97.5588°
perigee height: 549 km
apogee height: 561 km
right ascension of ascending node: 138.7878°
argument of perigee: 35.9017°
revolutions per day: 15.03714390
mean anomaly at epoch: 324.2800°
orbit number at epoch: 82175

The dashed part of the orbit path shows where the satellite is in the earth's shadow,  

DLR